OBJECT B, 100715

Orbit data source: Space-Track

You're viewing an uncataloged RSO

Recently launched and/or uncataloged RSOs may have evolving metadata. Metadata may include the following, but is not limited to: Owner, Manufacturer, Bus, Motor, and Mission.

OBJECT B, 100715 is a satellite owned by Zhongguo Xingwang (CN) in LEO that was launched on Thu, 17 Sep 2026 UTC launched from the Wenchang Satellite Launch Center (WSC). Unknown objects in Earth's orbit typically refer to objects detected orbiting the Earth but have not yet been identified or cataloged. These objects could be anything from previously untracked satellites, spent rocket stages, debris from satellite collisions, or even natural meteoroids temporarily captured by Earth's gravity.

Loading next visibility...
Identifier
100715, 2026-213B
Orbit
LEO
Country
Flag of CNCN / PRC
Related business
Manufacturer
CAST
Mission
Operational spacecraft
Bus & Motor
XINGWANG C, Unknown motor
Mass
~800 kg wet, ~800 kg dry
Launch date (UTC)
2026-09-17 (6 days ago)
Launch vehicle
Unknown
Launch site
Wenchang Satellite Launch Center (WSC)
Object type
Unknown
Shape & HBR
BOX + 2 PAN, 5.0 m
Radar Cross Section
RCS unknown

Expand to show TLE details & history
Last TLE update: 2 days ago

TLE from 2 days ago
0 OBJECT B
1 A0715U 26213B   26265.30608196 -.00000012  00000-0  10442-3 0  9999
2 A0715  50.0001 292.0393 0010853 239.2197 120.7634 13.92392558   740
Epoch: 2026-09-22T07:20Z
TLE epoch observation values (Epoch: 2026-09-22T07:20:45.481Z)
Latitude
-0.00004°
Longitude
-179.32369°
Altitude
924.838 km
Speed
7.389 km/s
True Right ascension
19h 28m 09s
True Declination
0° 00' 00"
Sunlit
Object was in daylight at epoch
Visualization orbit readout
Latitude
Unknown
Longitude
Unknown
Altitude
Unknown
Speed
Unknown
Apparent Right ascension
Unknown
Apparent Declination
Unknown
Sunlit
N/A
Visualization observer readout
Local Sidereal Time
15:24:12
Azimuth
Unknown
Elevation
Unknown
Doppler factor
Unknown
Orbital elements
Apogee altitude
928.907 km
Perigee altitude
913.064 km
Semi-major axis
7,299.122 km
Eccentricity
0.00109
Inclination
50.0001°
RAAN
292.0393°
Arg. of periapsis
239.2197°
True anomaly
120.87019°
Mean anomaly
120.7634°
Eccentric anomaly
120.8168°
Mean motion
3.48046 °/min
Orbital period
103.43 mins
BSTAR
0.00010442
Loading maneuver chart data...
Computing Atmospheric mass density...
Loading historical data...
Loading historical data...
Loading historical data...
Loading historical data...
Loading historical data...
Loading historical data...
Loading historical data...

Documentation

Showing up to 5 results
|